Date,TemperatureHighF,TemperatureAvgF,TemperatureLowF,DewpointHighF,DewpointAvgF,DewpointLowF,HumidityHigh,HumidityAvg,HumidityLow,PressureMaxIn,PressureMinIn,WindSpeedMaxMPH,WindSpeedAvgMPH,GustSpeedMaxMPH,PrecipitationSumIn
2013-3-1,53.6,42.6,32.2,34.0,32.0,28.0,93,68,43,30.09,29.98,6,1,12,0.00
2013-3-2,44.1,37.3,29.9,31.0,27.8,24.0,93,70,47,30.13,30.05,11,2,14,0.00
2013-3-3,50.4,39.0,31.6,28.0,24.7,20.0,79,59,32,30.17,30.08,8,2,13,0.00
2013-3-4,66.3,48.6,28.8,47.0,34.9,23.0,92,64,28,30.18,30.00,10,2,17,0.00
2013-3-5,73.9,56.5,38.4,62.0,50.5,37.0,93,81,56,30.09,29.86,10,2,17,0.05
2013-3-6,54.6,43.4,35.5,37.0,31.1,27.0,97,64,38,30.24,30.08,9,2,18,0.00
2013-3-7,65.6,47.2,30.0,35.0,31.1,28.0,93,58,27,30.31,30.18,5,1,8,0.00
2013-3-8,73.1,53.7,34.7,38.0,31.9,26.0,88,49,17,30.30,30.16,5,0,7,0.00
2013-3-9,72.7,57.8,43.9,46.0,40.0,31.0,75,54,32,30.23,30.08,10,2,14,0.00
2013-3-10,75.4,62.7,53.0,56.0,49.9,38.0,83,64,48,30.10,29.98,11,5,18,0.00
2013-3-11,65.7,55.0,43.2,62.0,53.5,42.0,98,94,84,29.98,29.82,11,3,17,1.36
2013-3-12,63.0,49.3,36.4,42.0,36.9,34.0,97,67,35,30.15,29.93,8,2,11,0.00
2013-3-13,64.5,51.2,36.6,39.0,31.6,23.0,92,52,24,30.30,30.16,8,2,14,0.00
2013-3-14,63.6,47.9,33.4,29.0,25.5,20.0,74,45,20,30.41,30.25,6,1,11,0.00
2013-3-15,76.4,56.4,38.1,46.0,38.4,28.0,81,54,28,30.27,30.09,9,1,13,0.00
2013-3-16,78.1,61.8,47.4,54.0,49.6,45.0,98,69,35,30.10,29.95,6,1,13,0.00
2013-3-17,72.3,61.1,51.1,62.0,57.5,51.0,99,89,68,30.03,29.91,5,1,9,0.00
2013-3-18,80.4,66.9,57.5,68.0,61.7,57.0,98,85,60,29.94,29.78,7,2,18,0.26
2013-3-19,76.4,61.2,52.8,58.0,49.2,34.0,98,70,29,30.05,29.80,14,1,15,0.68
2013-3-20,64.3,54.2,43.1,37.0,32.2,28.0,67,45,26,30.12,29.97,6,1,13,0.00
2013-3-21,64.1,49.1,36.5,35.0,29.5,21.0,86,52,20,30.04,29.90,6,1,9,0.00
2013-3-22,55.9,50.5,46.2,42.0,34.6,27.0,72,55,43,29.99,29.90,8,2,11,0.00
2013-3-23,66.7,58.0,51.1,61.0,52.0,43.0,98,81,70,29.91,29.61,12,3,13,1.53
2013-3-24,78.1,62.9,43.4,67.0,54.7,34.0,99,77,45,29.87,29.51,12,3,19,0.16
2013-3-25,57.5,46.1,35.4,33.0,26.1,20.0,73,49,26,30.18,29.88,10,3,17,0.00
2013-3-26,53.9,40.6,27.3,29.0,26.1,24.0,92,60,34,30.33,30.18,6,1,15,0.00
2013-3-27,61.3,45.2,27.1,33.0,27.8,24.0,94,56,26,30.40,30.25,3,0,10,0.00
2013-3-28,71.2,51.9,33.7,39.0,32.4,29.0,89,54,21,30.34,30.21,7,1,8,0.00
2013-3-29,76.1,58.1,38.3,49.0,38.6,33.0,94,56,23,30.32,30.16,8,1,12,0.00
2013-3-30,77.3,62.8,48.8,57.0,51.8,48.0,99,71,41,30.20,30.03,8,1,13,0.00
2013-3-31,81.6,67.3,55.8,64.0,59.4,55.0,99,79,45,30.05,29.86,6,1,12,0.05